GW3252 Weather Reports


time (UTC)temp
C
wind
direction
speed
KPH
gust
KPH
rain 1hr
cm
rain 24hr
cm
rain mn
cm
humidity
%
barometer
mb
20260906052436 24 41 0.0 0.0 0.00 0.08 0.00 92 1010.2
20260906051925 24 41 0.0 0.0 0.00 0.08 0.00 92 1010.2
20260906051406 24 41 0.0 0.0 0.00 0.08 0.00 92 1010.2
20260906050906 24 41 0.0 0.0 0.00 0.08 0.00 92 1010.3
20260906050434 24 41 0.0 0.0 0.00 0.08 0.00 92 1010.1
20260906045852 24 41 0.0 0.0 0.00 0.08 0.08 92 1010.2
20260906045607 24 40 0.0 0.0 0.00 0.08 0.08 92 1010.2
20260906044840 24 41 0.0 0.0 0.00 0.08 0.08 92 1010.2
20260906044550 24 41 0.0 0.0 0.00 0.08 0.08 92 1010.1
20260906043815 24 41 0.0 0.0 0.00 0.08 0.08 92 1010.1
20260906043308 25 41 0.0 0.0 0.00 0.08 0.08 92 1010.1
20260906042748 25 41 0.0 0.0 0.00 0.08 0.08 91 1010.1
20260906042221 25 41 0.0 0.0 0.00 0.08 0.08 91 1010.1
20260906041715 25 40 0.0 0.0 0.00 0.08 0.08 91 1010.1
20260906041208 25 41 0.0 0.0 0.00 0.08 0.08 91 1010.1
20260906040707 25 41 0.0 0.0 0.00 0.08 0.08 91 1010.1
20260906040627 25 40 0.0 0.0 0.00 0.08 0.08 91 1010.1
20260906035638 25 41 0.0 0.0 0.00 0.08 0.08 91 1010.2
20260906035411 25 41 0.0 0.0 0.00 0.08 0.08 91 1010.1
20260906034636 25 41 0.0 0.0 0.00 0.08 0.08 91 1010.2
20260906034128 25 41 0.0 0.0 0.00 0.08 0.08 91 1010.2
20260906033625 25 41 0.0 0.0 0.00 0.08 0.08 90 1010.1
20260906033349 25 41 0.0 0.0 0.00 0.08 0.08 90 1010.1
20260906032829 25 40 0.0 0.0 0.00 0.08 0.08 90 1009.9
20260906032107 25 41 0.0 0.0 0.00 0.08 0.08 90 1010.0
20260906031607 25 41 0.0 0.0 0.00 0.08 0.08 90 1010.0
20260906031331 25 41 0.0 0.0 0.00 0.08 0.08 90 1010.0
20260906030605 26 41 0.0 0.0 0.00 0.08 0.08 90 1010.0
20260906030331 26 41 0.0 0.0 0.00 0.08 0.08 89 1009.9
20260906025559 26 41 0.0 0.0 0.00 0.08 0.08 89 1009.9
20260906025117 26 40 0.0 0.0 0.00 0.08 0.08 89 1010.0
20260906024545 26 41 0.0 0.0 0.00 0.08 0.08 89 1010.1
20260906024011 26 41 0.0 0.0 0.00 0.08 0.08 89 1010.0
20260906023506 26 41 0.0 0.0 0.00 0.08 0.08 88 1010.0
20260906022958 26 41 0.0 0.0 0.00 0.08 0.08 88 1010.0
20260906022448 26 41 0.0 0.0 0.00 0.08 0.08 88 1009.9
20260906021941 26 41 0.0 0.0 0.00 0.08 0.08 88 1009.9
20260906021704 26 40 0.0 0.0 0.00 0.08 0.08 88 1009.9
20260906020936 26 40 0.0 0.0 0.00 0.08 0.08 87 1009.8
20260906020426 27 41 0.0 0.0 0.00 0.08 0.08 87 1009.7
20260906015911 27 41 0.0 0.0 0.00 0.08 0.08 87 1009.6
20260906015408 27 41 0.0 0.0 0.00 0.08 0.08 86 1009.7
20260906014906 27 41 0.0 0.0 0.00 0.08 0.08 86 1009.6
20260906014348 27 41 0.0 0.0 0.00 0.08 0.08 85 1009.4
20260906013818 27 40 0.0 0.0 0.00 0.08 0.08 85 1009.5
20260906013312 27 41 0.0 0.0 0.00 0.08 0.08 85 1009.4
20260906012745 28 41 0.0 0.0 0.00 0.08 0.08 84 1009.4
20260906012502 28 41 0.0 0.0 0.00 0.08 0.08 84 1009.4
20260906011724 28 41 0.0 0.0 0.00 0.08 0.08 83 1009.2
20260906011436 28 41 0.0 0.0 0.00 0.08 0.08 82 1009.0
20260906010710 28 41 0.0 0.0 0.00 0.08 0.08 81 1009.0
20260906010207 29 41 0.0 0.0 0.00 0.08 0.08 81 1009.0
20260906005926 29 41 0.0 0.0 0.00 0.08 0.08 81 1009.0
20260906004654 30 41 0.0 0.0 0.00 0.08 0.08 78 1009.0
20260906004156 30 41 0.0 0.0 0.00 0.08 0.08 78 1009.0
20260906003647 30 41 0.0 0.0 0.00 0.08 0.08 77 1009.0
20260906003414 30 41 0.0 0.0 0.00 0.08 0.08 76 1009.0
20260906002647 31 40 0.0 0.0 0.00 0.08 0.08 75 1009.0
20260906002117 31 40 0.0 0.0 0.00 0.08 0.08 73 1009.0
20260906001610 32 41 0.0 0.0 0.00 0.08 0.08 73 1009.1
20260906001548 32 41 0.0 0.0 0.00 0.08 0.08 72 1009.0
20260906000828 32 40 0.0 0.0 0.00 0.08 0.08 70 1009.2
20260906000106 33 41 0.0 0.0 0.00 0.08 0.08 72 1009.2
20260905235557 33 41 0.0 0.0 0.00 0.08 0.08 70 1009.2
20260905235059 33 40 0.0 0.0 0.00 0.08 0.08 68 1009.2
20260905234555 33 40 0.0 0.0 0.00 0.08 0.08 69 1009.2
20260905234056 33 40 0.0 0.0 0.00 0.08 0.08 70 1009.2
20260905233553 33 40 0.0 0.0 0.00 0.08 0.08 71 1009.2
20260905233053 34 40 0.0 0.0 0.00 0.08 0.08 69 1009.3
20260905233036 34 40 0.0 0.0 0.00 0.08 0.08 68 1009.2
20260905232032 34 40 0.0 0.0 0.00 0.08 0.08 68 1009.2
20260905231524 34 40 0.0 0.0 0.00 0.08 0.08 69 1009.3
20260905231019 35 40 0.0 0.0 0.00 0.08 0.08 68 1009.3
20260905230522 35 40 0.0 0.0 0.00 0.08 0.08 67 1009.3
20260905230008 35 40 0.0 0.0 0.00 0.08 0.08 66 1009.3
20260905225506 35 40 0.0 0.0 0.00 0.08 0.08 64 1009.2
20260905225006 35 41 0.0 0.0 0.00 0.08 0.08 66 1009.2
20260905224458 35 40 0.0 0.0 0.00 0.08 0.08 67 1009.2
20260905223959 34 40 0.0 0.0 0.00 0.08 0.08 69 1009.3
20260905223452 34 44 0.0 0.0 0.00 0.08 0.08 69 1009.4
20260905222948 34 44 0.0 0.0 0.00 0.08 0.08 70 1009.3
20260905222427 34 44 0.0 0.0 0.00 0.08 0.08 71 1009.4
20260905221925 34 44 0.0 0.0 0.00 0.08 0.08 70 1009.3
20260905221422 34 44 0.0 0.0 0.00 0.08 0.08 72 1009.4
20260905220919 34 44 0.0 0.0 0.00 0.08 0.08 71 1009.5
20260905220840 34 44 0.0 0.0 0.00 0.08 0.08 69 1009.5
20260905215853 35 44 0.0 0.0 0.00 0.08 0.08 70 1009.4
20260905215352 35 44 0.0 0.0 0.00 0.08 0.08 69 1009.5
20260905214852 35 44 0.0 0.0 0.00 0.08 0.08 67 1009.5
20260905214613 35 44 0.0 1.6 0.00 0.08 0.08 65 1009.5
20260905214049 35 44 0.0 1.6 0.00 0.08 0.08 64 1009.4
20260905213309 34 44 0.0 1.6 0.00 0.08 0.08 73 1009.4
20260905212755 34 45 0.0 0.0 0.08 0.08 0.08 73 1009.5
20260905212244 33 45 0.0 0.0 0.08 0.08 0.08 72 1009.5
20260905211739 32 45 0.0 0.0 0.08 0.08 0.08 78 1009.6
20260905211227 32 45 0.0 0.0 0.08 0.08 0.08 80 1009.7
20260905210718 32 45 0.0 1.6 0.08 0.08 0.08 80 1009.6
20260905210221 32 45 0.0 1.6 0.08 0.08 0.08 79 1009.7
20260905205704 31 45 0.0 1.6 0.08 0.08 0.08 79 1009.8
20260905205204 31 46 0.0 1.6 0.08 0.08 0.08 76 1009.8
20260905204654 32 44 0.0 0.0 0.08 0.08 0.08 73 1010.0
20260905204150 32 44 0.0 1.6 0.08 0.08 0.08 69 1010.3
20260905203626 32 44 1.6 14.5 0.08 0.08 0.08 64 1010.3
20260905203113 33 37 4.8 17.7 0.05 0.05 0.05 60 1010.5
20260905202610 35 83 4.8 20.9 0.00 0.00 0.00 52 1010.4
20260905202108 36 319 3.2 20.9 0.00 0.00 0.00 48 1010.6
20260905201609 36 280 1.6 12.9 0.00 0.00 0.00 48 1010.8
20260905201554 36 279 1.6 6.4 0.00 0.00 0.00 47 1010.5
20260905200605 36 268 0.0 6.4 0.00 0.00 0.00 55 1010.6
20260905200321 35 199 0.0 0.0 0.00 0.00 0.00 51 1010.5
20260905195606 34 286 0.0 6.4 0.00 0.00 0.00 58 1010.4
20260905195057 34 287 1.6 6.4 0.00 0.00 0.00 57 1010.5
20260905194553 33 240 0.0 4.8 0.00 0.00 0.00 58 1010.6
20260905194045 33 232 0.0 3.2 0.00 0.00 0.00 61 1010.8
20260905193547 33 232 0.0 4.8 0.00 0.00 0.00 60 1010.9
20260905193040 34 232 0.0 4.8 0.00 0.00 0.00 58 1011.0
20260905192806 35 213 1.6 6.4 0.00 0.00 0.00 54 1011.0
20260905192036 35 215 3.2 14.5 0.00 0.00 0.00 50 1011.2
20260905191534 36 292 3.2 16.1 0.00 0.00 0.00 49 1011.2
20260905191022 38 264 1.6 16.1 0.00 0.00 0.00 40 1011.4
20260905190522 38 16 3.2 16.1 0.00 0.00 0.00 40 1011.3
20260905190014 38 58 3.2 16.1 0.00 0.00 0.00 42 1011.5
20260905185509 38 282 3.2 12.9 0.00 0.00 0.00 42 1011.3
20260905185233 38 292 3.2 12.9 0.00 0.00 0.00 40 1011.3
20260905184505 38 58 1.6 11.3 0.00 0.00 0.00 41 1011.4
20260905184004 38 188 1.6 6.4 0.00 0.00 0.00 41 1011.5
20260905183727 38 134 1.6 9.7 0.00 0.00 0.00 43 1011.6
20260905182951 38 20 1.6 9.7 0.00 0.00 0.00 42 1011.6
20260905182446 38 50 1.6 9.7 0.00 0.00 0.00 42 1011.6
20260905181943 38 20 3.2 11.3 0.00 0.00 0.00 46 1011.6
20260905181444 37 0 3.2 14.5 0.00 0.00 0.00 46 1011.7
20260905180940 37 15 3.2 14.5 0.00 0.00 0.00 43 1011.7
20260905180429 37 107 3.2 11.3 0.00 0.00 0.00 44 1011.9
20260905175923 37 26 3.2 9.7 0.00 0.00 0.00 45 1011.9
20260905175422 37 86 3.2 9.7 0.00 0.00 0.00 44 1012.0
20260905174921 37 117 1.6 9.7 0.00 0.00 0.00 46 1011.9
20260905174423 37 38 1.6 4.8 0.00 0.00 0.00 47 1012.0
20260905173908 37 80 3.2 11.3 0.00 0.00 0.00 50 1012.0
20260905173406 37 26 3.2 11.3 0.00 0.00 0.00 45 1012.1
20260905172905 37 44 3.2 9.7 0.00 0.00 0.00 45 1012.1
20260905172405 37 26 3.2 9.7 0.00 0.00 0.00 45 1012.0
20260905172344 37 326 1.6 8.0 0.00 0.00 0.00 45 1012.1
20260905171400 37 35 3.2 6.4 0.00 0.00 0.00 45 1012.2
20260905171340 37 179 3.2 11.3 0.00 0.00 0.00 47 1012.3
20260905170400 37 0 3.2 14.5 0.00 0.00 0.00 46 1012.4
20260905165907 37 5 1.6 14.5 0.00 0.00 0.00 47 1012.5
20260905165400 37 71 0.0 6.4 0.00 0.00 0.00 49 1012.4
20260905164858 36 121 0.0 3.2 0.00 0.00 0.00 49 1012.5
20260905164356 36 100 1.6 6.4 0.00 0.00 0.00 51 1012.6
20260905163850 36 167 1.6 9.7 0.00 0.00 0.00 50 1012.5
20260905163341 36 178 3.2 9.7 0.00 0.00 0.00 51 1012.6
20260905162835 35 250 1.6 8.0 0.00 0.00 0.00 51 1012.6
20260905162321 35 277 1.6 8.0 0.00 0.00 0.00 51 1012.8
20260905161822 35 299 1.6 4.8 0.00 0.00 0.00 55 1012.8
20260905161316 35 300 1.6 4.8 0.00 0.00 0.00 54 1012.8
20260905160806 35 271 1.6 4.8 0.00 0.00 0.00 54 1012.8
20260905160304 35 119 1.6 4.8 0.00 0.00 0.00 57 1012.9
20260905155804 35 194 1.6 4.8 0.00 0.00 0.00 55 1013.0
20260905155256 34 174 1.6 4.8 0.00 0.00 0.00 58 1013.1
20260905154753 34 67 1.6 4.8 0.00 0.00 0.00 59 1013.0
20260905154252 33 67 1.6 4.8 0.00 0.00 0.00 60 1012.9
20260905153750 33 230 1.6 4.8 0.00 0.00 0.00 62 1012.9
20260905153232 33 225 1.6 4.8 0.00 0.00 0.00 61 1012.9
20260905152959 33 204 1.6 4.8 0.00 0.00 0.00 63 1013.0
20260905152217 32 236 0.0 4.8 0.00 0.00 0.00 63 1013.0
20260905151717 32 242 0.0 0.0 0.00 0.00 0.00 64 1013.0
20260905151220 32 242 0.0 0.0 0.00 0.00 0.00 65 1013.0
20260905150658 32 242 0.0 0.0 0.00 0.00 0.00 65 1013.0
20260905150151 31 242 0.0 0.0 0.00 0.00 0.00 68 1013.1
20260905145634 31 241 0.0 0.0 0.00 0.00 0.00 68 1013.0
20260905145127 31 240 0.0 0.0 0.00 0.00 0.00 70 1012.9
20260905144619 31 240 0.0 0.0 0.00 0.00 0.00 69 1012.9
20260905144114 30 154 0.0 0.0 0.00 0.00 0.00 72 1012.9
20260905143837 30 154 0.0 0.0 0.00 0.00 0.00 74 1012.8
20260905143113 29 154 0.0 0.0 0.00 0.00 0.00 75 1012.8
20260905142557 29 154 0.0 0.0 0.00 0.00 0.00 78 1012.7
20260905142057 28 154 0.0 0.0 0.00 0.00 0.00 83 1012.7
20260905141552 27 154 0.0 0.0 0.00 0.00 0.00 86 1012.7
20260905141320 27 154 0.0 0.0 0.00 0.00 0.00 91 1012.6
20260905140541 26 154 0.0 0.0 0.00 0.00 0.00 93 1012.5
20260905140038 26 154 0.0 0.0 0.00 0.00 0.00 94 1012.5
20260905135541 25 154 0.0 0.0 0.00 0.00 0.00 95 1012.4
20260905135036 25 154 0.0 0.0 0.00 0.00 0.00 95 1012.4
20260905134532 25 154 0.0 0.0 0.00 0.00 0.00 95 1012.4
20260905134011 24 154 0.0 0.0 0.00 0.00 0.00 95 1012.4
20260905133501 24 154 0.0 0.0 0.00 0.00 0.00 95 1012.3
20260905133230 24 154 0.0 0.0 0.00 0.00 0.00 95 1012.4
20260905132454 24 154 0.0 0.0 0.00 0.00 0.00 96 1012.3
20260905131941 23 154 0.0 0.0 0.00 0.00 0.00 95 1012.4
20260905131651 23 154 0.0 0.0 0.00 0.00 0.00 96 1012.4
20260905130906 23 154 0.0 0.0 0.00 0.00 0.00 95 1012.4
20260905130403 23 154 0.0 0.0 0.00 0.00 0.00 95 1012.5
20260905125854 23 154 0.0 0.0 0.00 0.00 0.00 95 1012.4
20260905125346 22 154 0.0 0.0 0.00 0.00 0.00 95 1012.5
20260905124833 22 154 0.0 0.0 0.00 0.00 0.00 95 1012.4
20260905124325 22 154 0.0 0.0 0.00 0.00 0.00 95 1012.4
20260905123825 22 154 0.0 0.0 0.00 0.00 0.00 95 1012.3
20260905123746 22 154 0.0 0.0 0.00 0.00 0.00 95 1012.3
20260905122740 22 154 0.0 0.0 0.00 0.00 0.00 95 1012.3
20260905122238 22 154 0.0 0.0 0.00 0.00 0.00 95 1012.2
20260905121732 22 154 0.0 0.0 0.00 0.00 0.00 95 1012.2
20260905121502 22 154 0.0 0.0 0.00 0.00 0.00 94 1012.2
20260905120941 22 154 0.0 0.0 0.00 0.00 0.00 94 1012.2
20260905120209 22 154 0.0 0.0 0.00 0.00 0.00 94 1012.2
20260905115709 22 154 0.0 0.0 0.00 0.00 0.00 94 1012.1
20260905115152 22 154 0.0 0.0 0.00 0.00 0.00 94 1012.2
20260905114655 22 154 0.0 0.0 0.00 0.00 0.00 94 1012.1
20260905114120 22 154 0.0 0.0 0.00 0.00 0.00 94 1011.9
20260905113549 22 154 0.0 0.0 0.00 0.00 0.00 94 1011.9
20260905113224 22 154 0.0 0.0 0.00 0.00 0.00 94 1011.8
20260905112458 22 154 0.0 0.0 0.00 0.00 0.00 94 1011.8
20260905111944 22 154 0.0 0.0 0.00 0.00 0.00 94 1011.8
20260905111407 22 154 0.0 0.0 0.00 0.00 0.00 94 1011.8
20260905110901 22 154 0.0 0.0 0.00 0.00 0.00 94 1011.8
20260905110359 22 154 0.0 0.0 0.00 0.00 0.00 94 1011.7
20260905105854 22 154 0.0 0.0 0.00 0.00 0.00 94 1011.7
20260905105341 22 154 0.0 0.0 0.00 0.00 0.00 94 1011.6
20260905104837 22 154 0.0 0.0 0.00 0.00 0.00 94 1011.6
20260905104300 22 154 0.0 0.0 0.00 0.00 0.00 94 1011.5
20260905103757 22 154 0.0 0.0 0.00 0.00 0.00 93 1011.5
20260905103252 22 154 0.0 0.0 0.00 0.00 0.00 93 1011.5
20260905102934 22 154 0.0 0.0 0.00 0.00 0.00 93 1011.5
20260905102204 22 154 0.0 0.0 0.00 0.00 0.00 93 1011.5
20260905101701 22 154 0.0 0.0 0.00 0.00 0.00 93 1011.5
20260905101419 22 154 0.0 0.0 0.00 0.00 0.00 93 1011.5
20260905100658 22 154 0.0 0.0 0.00 0.00 0.00 93 1011.5
20260905100155 22 154 0.0 0.0 0.00 0.00 0.00 93 1011.6
20260905095651 22 154 0.0 0.0 0.00 0.00 0.00 93 1011.6
20260905095143 22 154 0.0 0.0 0.00 0.00 0.00 93 1011.6
20260905094628 22 154 0.0 0.0 0.00 0.00 0.00 93 1011.5
20260905094124 22 154 0.0 0.0 0.00 0.00 0.00 93 1011.5
20260905093617 22 154 0.0 0.0 0.00 0.00 0.00 93 1011.4
20260905093107 22 154 0.0 0.0 0.00 0.00 0.00 93 1011.4
20260905092558 22 154 0.0 0.0 0.00 0.00 0.00 93 1011.4
20260905092059 22 154 0.0 0.0 0.00 0.00 0.00 93 1011.4
20260905091549 22 154 0.0 0.0 0.00 0.00 0.00 93 1011.5
20260905091002 22 154 0.0 0.0 0.00 0.00 0.00 93 1011.4
20260905090506 22 154 0.0 0.0 0.00 0.00 0.00 93 1011.5
20260905090000 22 154 0.0 0.0 0.00 0.00 0.00 93 1011.5
20260905085502 22 154 0.0 0.0 0.00 0.00 0.00 93 1011.6
20260905085002 22 154 0.0 0.0 0.00 0.00 0.00 93 1011.5
20260905084504 22 154 0.0 0.0 0.00 0.00 0.00 92 1011.4
20260905084001 22 154 0.0 0.0 0.00 0.00 0.00 92 1011.4
20260905083942 22 154 0.0 0.0 0.00 0.00 0.00 92 1011.4
20260905082952 22 154 0.0 0.0 0.00 0.00 0.00 92 1011.4
20260905082722 22 154 0.0 0.0 0.00 0.00 0.00 92 1011.5
20260905081935 22 154 0.0 0.0 0.00 0.00 0.00 92 1011.4
20260905081420 22 154 0.0 0.0 0.00 0.00 0.00 92 1011.5
20260905080906 22 154 0.0 0.0 0.00 0.00 0.00 92 1011.6
20260905080404 23 154 0.0 0.0 0.00 0.00 0.00 92 1011.5
20260905075903 23 154 0.0 0.0 0.00 0.00 0.00 92 1011.5
20260905075852 23 154 0.0 0.0 0.00 0.00 0.00 92 1011.5
20260905074855 23 154 0.0 0.0 0.00 0.00 0.00 92 1011.5
20260905074351 23 154 0.0 0.0 0.00 0.00 0.00 92 1011.5
20260905074105 23 154 0.0 0.0 0.00 0.00 0.00 91 1011.5
20260905073339 23 154 0.0 0.0 0.00 0.00 0.00 91 1011.5
20260905072806 23 154 0.0 0.0 0.00 0.00 0.00 91 1011.4
20260905072525 23 154 0.0 0.0 0.00 0.00 0.00 91 1011.6
20260905072001 23 154 0.0 0.0 0.00 0.00 0.00 91 1011.5
20260905071208 23 154 0.0 0.0 0.00 0.00 0.00 91 1011.6
20260905070702 23 154 0.0 0.0 0.00 0.00 0.00 91 1011.7
20260905070203 23 154 0.0 0.0 0.00 0.00 0.00 91 1011.7
20260905065825 23 154 0.0 0.0 0.00 0.00 0.00 91 1011.7
20260905065103 23 154 0.0 0.0 0.00 0.00 0.00 91 1011.6
20260905064607 23 154 0.0 0.0 0.00 0.00 0.00 91 1011.7
20260905064103 23 154 0.0 0.0 0.00 0.00 0.00 90 1011.8
20260905063809 23 154 0.0 0.0 0.00 0.00 0.00 90 1011.7
20260905063046 23 154 0.0 0.0 0.00 0.00 0.00 90 1011.7
20260905062532 23 154 0.0 0.0 0.00 0.00 0.00 90 1011.7
20260905062021 23 154 0.0 0.0 0.00 0.00 0.00 90 1011.7
20260905061508 23 154 0.0 0.0 0.00 0.00 0.00 90 1011.7
20260905061004 23 154 0.0 0.0 0.00 0.00 0.00 90 1011.6
20260905060502 23 154 0.0 0.0 0.00 0.00 0.00 90 1011.6
20260905060439 23 154 0.0 0.0 0.00 0.00 0.00 89 1011.7
20260905055407 23 154 0.0 0.0 0.00 0.00 0.00 89 1011.6
20260905054858 23 154 0.0 0.0 0.00 0.00 0.00 89 1011.6
20260905054332 24 154 0.0 0.0 0.00 0.00 0.00 89 1011.7
20260905053814 24 154 0.0 0.0 0.00 0.00 0.00 89 1011.7
20260905053312 24 154 0.0 0.0 0.00 0.00 0.00 89 1011.7
20260905052809 24 154 0.0 0.0 0.00 0.00 0.00 88 1011.6